This demonstration page uses our WeatherBlox Daily Observations layout. Learn more.

Left ArrowRight Arrow

34.74481, -87.66753

Hourly Observations for April 17, 2017

Temp ( °F °C ) Dew Point ( °F °C ) Humidity (%) Winds ( mph kmh ) Pressure ( in mb ) Visibility ( mi km ) Precip ( " mm )
12:53 am 00:53 Cloudy 66 18.9 58 14.4 75 75 Calm 30.09 1019 10 16 0.00 0.00
1:53 am 01:53 Mostly Cloudy 64 17.8 57 13.9 78 78 Calm 30.07 1018 10 16 0.00 0.00
2:53 am 02:53 Cloudy 67 19.4 57 13.9 71 71 Calm 30.08 1019 10 16 0.00 0.00
3:53 am 03:53 Cloudy 64 17.8 58 14.4 81 81 S 3 6 30.07 1018 10 16 0.00 0.00
4:53 am 04:53 Clear 62 16.7 56 13.3 80 80 S 3 6 30.07 1018 10 16 0.00 0.00
5:53 am 05:53 Clear 63 17.2 57 13.9 81 81 Calm 30.09 1019 10 16 0.00 0.00
6:53 am 06:53 Mostly Sunny 62 16.7 57 13.9 84 84 SSW 3 6 30.11 1020 10 16 0.00 0.00
7:53 am 07:53 Mostly Cloudy 68 20 61 16.1 78 78 WSW 5 7 30.12 1020 10 16 0.00 0.00
8:53 am 08:53 Cloudy 70 21.1 62 16.7 76 76 W 9 15 30.12 1020 10 16 0.00 0.00
9:53 am 09:53 Partly Cloudy 72 22.2 64 17.8 76 76 W 5 7 30.12 1020 10 16 0.00 0.00
10:53 am 10:53 Cloudy with Light Rain 74 23.3 65 18.3 74 74 WSW 6 9 30.12 1020 9 14 0.00 0.03
11:53 am 11:53 Mostly Sunny 79 26.1 62 16.7 56 56 SSW 8 13 30.09 1019 10 16 0.00 0.03
12:53 pm 12:53 Mostly Sunny 81 27.2 61 16.1 51 51 SSW 9 15 30.07 1018 10 16 0.00 0.00
1:53 pm 13:53 Mostly Sunny 82 27.8 60 15.6 47 47 WSW 9 15 30.04 1017 10 16 0.00 0.00
2:53 pm 14:53 Sunny 81 27.2 58 14.4 45 45 SSW 10 17 30.03 1017 10 16 0.00 0.00
3:53 pm 15:53 Mostly Cloudy 80 26.7 60 15.6 51 51 SW 9 15 30.01 1016 10 16 0.00 0.03
4:53 pm 16:53 Mostly Sunny 78 25.6 63 17.2 60 60 WSW 9 15 30.00 1016 10 16 0.00 0.00
5:53 pm 17:53 Mostly Cloudy 73 22.8 64 17.8 74 74 WNW 7 11 30.02 1017 10 16 0.00 0.03
6:00 pm 18:00 Cloudy with Nearby Thunderstorms 73 22.8 62 16.7 69 69 NNW 9 15 30.00 1016 10 16 0.00 0.00
6:15 pm 18:15 Cloudy with Thunderstorms 69 20.6 62 16.7 78 78 NNW 13 20 30.03 1017 3 4 0.00 0.03

Powered by AerisWeather